This demonstration page uses our WeatherBlox Daily Observations layout. Learn more.

Left ArrowRight Arrow

Hourly Observations for September 25, 2022

Temp ( °F °C ) Dew Point ( °F °C ) Humidity (%) Winds ( mph kmh ) Pressure ( in mb ) Visibility ( mi km ) Precip ( " mm )
12:53 am 00:53 Clear 58 14.4 56 13.3 93 93 Calm 29.83 1010 10 16 0.00 0.00
1:53 am 01:53 Clear 58 14.4 56 13.3 93 93 Calm 29.81 1010 9 14 0.00 0.00
2:53 am 02:53 Clear 57 13.9 56 13.3 96 96 Calm 29.81 1009 8 13 0.00 0.00
3:53 am 03:53 Mostly Clear 59 15 58 14.4 96 96 Calm 29.78 1009 9 14 0.00 0.00
4:53 am 04:53 Clear 60 15.6 58 14.4 93 93 NNE 3 6 29.75 1008 10 16 0.00 0.00
5:53 am 05:53 Partly Cloudy 60 15.6 58 14.4 93 93 Calm 29.73 1007 8 13 0.00 0.00
6:53 am 06:53 Partly Cloudy with Light Rain 62 16.7 59 15 90 90 VRB 3 6 29.74 1007 10 16 0.01 0.13
7:53 am 07:53 Partly Cloudy 61 16.1 59 15 93 93 Calm 29.74 1007 10 16 0.03 0.76
8:12 am 08:12 Cloudy with Rain 62 16.7 59 15 90 90 VRB 3 6 29.78 1009 2 3 0.04 1.02
8:22 am 08:22 Mostly Cloudy with Light Rain 62 16.7 59 15 90 90 VRB 5 7 29.76 1008 3 5 0.05 1.27
8:53 am 08:53 Mostly Sunny 62 16.7 59 15 90 90 WSW 3 6 29.76 1008 10 16 0.05 1.27
9:53 am 09:53 Partly Cloudy 65 18.3 59 15 81 81 VRB 7 11 29.78 1008 10 16 0.00 0.00
10:53 am 10:53 Mostly Sunny 68 20 56 13.3 65 65 VRB 7 11 29.78 1008 10 16 0.00 0.00
11:53 am 11:53 Sunny 70 21.1 54 12.2 57 57 WNW 13 20 29.77 1008 10 16 0.00 0.00
12:53 pm 12:53 Mostly Cloudy 71 21.7 53 11.7 53 53 W 8 13 29.77 1008 10 16 0.00 0.00
1:53 pm 13:53 Mostly Cloudy 71 21.7 53 11.7 53 53 W 9 15 29.77 1008 10 16 0.00 0.00
2:53 pm 14:53 Mostly Sunny 72 22.2 51 10.6 48 48 WNW 14 22 29.77 1008 10 16 0.00 0.00
3:53 pm 15:53 Mostly Cloudy 71 21.7 52 11.1 51 51 VRB 7 11 29.77 1008 10 16 0.00 0.00
4:53 pm 16:53 Mostly Cloudy 69 20.6 52 11.1 54 54 WNW 15 24 29.78 1009 10 16 0.00 0.00
5:53 pm 17:53 Cloudy 69 20.6 53 11.7 57 57 W 8 13 29.79 1009 10 16 0.00 0.00
6:53 pm 18:53 Sunny 67 19.4 51 10.6 57 57 WNW 13 20 29.80 1009 10 16 0.00 0.00
7:53 pm 19:53 Clear 61 16.1 53 11.7 75 75 W 3 6 29.81 1010 10 16 0.00 0.00
8:53 pm 20:53 Clear 57 13.9 53 11.7 87 87 Calm 29.82 1010 10 16 0.00 0.00
9:53 pm 21:53 Clear 55 12.8 52 11.1 89 89 Calm 29.82 1010 10 16 0.00 0.00
10:53 pm 22:53 Mostly Cloudy 55 12.8 53 11.7 93 93 Calm 29.82 1010 10 16 0.00 0.00
11:53 pm 23:53 Clear 55 12.8 52 11.1 89 89 Calm 29.82 1010 10 16 0.00 0.00

Powered by AerisWeather